Wind_Speed
41 42 42 40 40 39 41 42 43 42 42 43 42 43 41 40 39 40 34 39 42 40 40 42 45 47 47 49 52 53 52 46 42 45 51 49 51 47 53 54 53 51 43 37 30
41 40 40 41 42 44 45 45 45 45 45 44 44 44 44 43 42 43 40 46 45 41 41 43 46 49 49 48 52 54 53 47 42 42 46 50 54 52 51 57 58 57 51 45 40
42 44 46 48 49 51 50 49 47 48 49 49 48 48 48 47 47 46 44 48 47 44 43 45 48 49 50 50 51 51 51 51 47 45 46 47 51 57 52 56 58 61 59 52 46
45 45 46 49 51 52 52 51 52 54 54 54 54 53 52 51 52 50 50 49 51 49 46 47 49 50 50 50 52 52 50 51 49 48 48 50 51 53 58 54 54 59 61 57 53
48 50 52 54 56 58 60 61 61 62 60 60 59 60 59 55 52 56 53 52 53 55 52 51 51 51 52 51 51 53 50 50 49 48 48 50 52 55 57 62 55 55 58 59 57
51 55 57 60 61 63 64 64 65 64 63 63 65 66 64 60 55 59 54 55 56 56 57 55 52 52 53 53 52 51 51 50 48 47 46 47 52 57 57 59 66 62 58 61 61
56 60 62 64 66 68 69 70 71 71 70 71 71 70 70 65 64 60 62 57 56 57 59 57 54 53 53 53 53 54 52 53 52 52 50 50 53 54 57 59 64 69 66 65 63
61 66 70 73 76 77 77 77 75 76 76 77 77 77 75 68 69 66 65 63 60 57 57 59 57 55 54 53 52 54 55 55 54 56 55 55 54 55 54 61 61 67 70 70 68
70 75 78 81 81 82 79 75 74 77 79 81 82 82 77 75 75 70 67 67 65 61 58 59 59 59 54 53 52 54 52 54 54 56 55 55 56 56 57 57 62 64 68 71 72
76 81 83 87 81 73 71 63 59 58 56 58 64 74 75 76 80 79 71 68 69 65 60 64 63 61 60 57 53 54 53 56 54 54 53 52 58 57 58 60 59 61 65 68 71
85 87 89 78 71 59 55 55 54 53 49 48 50 48 50 61 68 70 69 70 69 67 65 67 64 61 58 57 56 54 54 54 51 48 48 49 56 56 58 60 61 62 61 69 71
88 89 76 49 38 41 46 46 37 37 35 36 39 39 34 48 57 57 63 61 68 66 66 66 65 58 55 53 50 49 50 49 48 43 45 45 45 50 52 55 59 63 63 65 71
89 72 45 35 36 41 41 40 35 31 26 17 29 32 35 40 44 50 61 61 59 61 61 62 61 59 55 51 48 48 47 45 42 42 46 45 45 46 48 55 59 61 64 66 68
73 49 27 31 39 39 37 29 27 18 11 7 8 10 20 34 31 44 53 53 57 53 54 57 55 48 48 46 41 39 39 41 39 39 42 43 44 44 48 50 55 59 64 67 68
60 25 31 38 38 37 35 26 22 13 8 4 13 11 21 18 32 51 47 53 53 51 54 56 52 46 44 39 37 36 39 38 37 39 41 41 44 43 46 47 49 56 63 69 71
39 28 33 41 44 39 28 28 24 17 8 5 3 7 7 25 29 54 50 50 46 47 45 48 44 39 37 37 37 37 35 35 34 35 40 39 42 41 39 45 51 55 62 68 71
27 31 38 42 41 38 27 25 22 16 6 5 10 22 2 15 32 55 48 55 53 55 52 47 41 40 41 40 40 36 36 35 36 39 40 34 35 29 30 24 20 33 50 61 66
25 33 41 41 40 35 26 22 16 9 5 14 24 16 11 13 36 53 53 48 46 42 44 46 47 44 40 38 37 42 43 43 44 39 28 22 19 16 19 23 25 28 34 33 34
23 34 41 42 37 28 23 14 8 22 25 27 21 7 11 22 39 47 48 47 41 41 39 42 43 45 42 42 42 41 44 38 34 30 23 23 22 22 20 27 24 22 23 27 36
22 34 41 39 32 23 15 10 8 33 38 35 24 7 18 30 46 42 40 42 38 40 39 40 41 42 40 42 41 38 36 37 32 28 30 23 23 20 23 26 29 29 30 34 30
24 34 39 34 24 19 17 16 27 31 30 33 25 9 19 35 45 43 43 42 39 41 43 40 38 37 36 43 43 43 40 39 35 33 27 22 25 24 25 24 26 31 35 25 22
24 32 35 27 22 24 21 27 30 34 28 25 21 10 23 38 25 31 35 37 41 37 35 39 37 32 37 36 37 37 38 34 32 34 33 25 21 22 21 22 12 17 15 11 12
22 29 30 18 20 23 20 30 29 27 21 23 23 16 16 24 31 37 33 32 35 32 32 34 36 38 33 34 36 40 39 34 32 29 33 33 20 25 20 14 15 21 15 11 10
20 25 23 17 21 18 22 23 29 30 24 17 13 14 17 18 32 36 32 34 38 39 33 37 38 38 40 36 38 37 35 36 31 31 28 27 23 16 23 23 22 26 21 13 9
20 24 18 15 18 17 21 19 26 26 23 9 8 10 21 28 30 39 35 35 36 33 35 39 39 40 39 33 33 32 29 30 25 21 20 19 21 21 24 27 24 27 21 16 16
15 18 20 13 11 13 13 15 18 19 18 9 6 16 27 32 36 34 34 34 39 35 35 41 40 38 36 34 28 29 26 30 25 21 22 20 23 22 29 34 34 27 17 19 21
17 20 20 12 9 14 15 15 17 21 15 11 13 24 29 39 35 33 28 33 33 34 40 45 41 37 38 34 30 26 24 24 26 27 25 22 25 21 15 39 32 25 21 12 14
Wind_Direction
294 289 289 288 286 285 284 279 275 272 267 262 261 256 254 253 249 250 243 243 239 236 236 230 227 232 232 229 230 229 227 228 225 221 216 214 217 216 221 228 234 236 236 236 224
299 296 294 291 289 288 285 281 276 271 267 264 259 256 248 248 246 250 241 237 239 237 237 232 229 229 231 231 230 230 228 226 224 223 219 220 215 215 218 224 232 237 237 240 235
303 295 294 293 291 290 287 280 277 273 269 264 259 255 251 244 245 246 244 238 237 239 238 235 229 228 229 230 230 230 229 227 224 221 219 221 224 221 212 222 229 234 235 235 240
303 298 295 293 291 289 286 281 277 272 267 265 261 258 252 246 244 244 244 239 236 235 235 236 234 229 227 228 232 230 228 227 225 224 221 219 220 222 225 222 228 233 237 237 238
304 301 299 296 293 291 287 282 278 275 271 265 260 256 253 248 246 246 240 239 237 236 233 233 234 232 228 226 228 231 231 228 225 225 224 220 219 222 223 226 227 234 238 239 237
306 304 301 298 293 290 288 285 280 275 270 265 261 256 250 245 248 246 243 239 237 236 236 235 232 231 229 226 227 230 230 231 230 226 225 222 221 220 225 225 227 230 235 239 240
309 308 305 301 297 294 289 284 279 273 268 263 259 255 251 246 249 245 241 238 235 234 235 234 234 231 230 228 225 226 227 227 226 225 224 222 219 220 224 225 227 231 232 236 238
310 309 308 304 301 297 292 285 278 272 267 262 259 255 249 245 246 245 239 236 234 234 232 232 230 230 230 230 227 227 227 227 225 226 224 223 219 219 221 227 227 231 234 237 239
314 311 309 308 304 301 296 288 278 270 264 259 255 253 249 245 242 241 235 233 230 229 229 229 229 229 227 228 229 228 230 231 226 229 227 227 224 223 223 226 229 230 234 237 241
316 316 314 313 311 304 297 290 281 275 270 266 261 255 247 243 242 240 234 229 228 225 224 226 225 225 226 227 230 230 232 229 227 229 229 227 230 226 227 224 229 232 232 237 240
323 321 321 319 314 308 307 296 284 276 269 266 264 260 253 248 240 241 236 227 226 225 225 225 226 226 226 226 226 227 231 234 234 234 232 229 233 231 231 230 226 230 232 233 241
327 327 324 328 332 332 325 310 300 289 277 265 266 258 250 244 234 232 231 224 225 225 223 223 224 225 225 225 223 225 230 230 233 235 239 236 237 239 236 234 235 232 231 233 233
331 329 331 333 334 337 329 320 316 304 297 273 261 261 245 242 238 226 225 221 219 222 222 225 224 221 221 223 222 223 225 227 229 233 236 238 237 238 236 234 234 236 235 233 234
334 335 340 338 333 335 340 323 324 318 316 284 227 250 242 232 231 208 217 211 209 210 215 219 220 220 222 223 221 225 225 226 225 229 234 238 239 240 241 237 237 237 237 235 233
336 335 340 338 335 338 349 353 356 341 300 328 192 292 204 224 213 197 202 203 205 206 208 213 213 212 215 217 217 215 217 218 222 227 232 241 245 240 244 244 241 240 238 237 235
341 339 331 335 340 340 348 355 7 11 358 319 234 340 349 230 199 188 185 188 190 192 197 206 206 200 203 206 206 212 207 211 218 226 231 236 245 243 250 249 241 235 234 234 235
334 342 344 345 342 346 348 356 8 21 66 108 32 15 54 219 186 181 176 179 180 184 187 191 192 191 195 197 202 197 201 207 214 222 231 238 250 251 242 242 230 230 234 236 233
343 344 345 344 347 348 353 11 20 16 359 13 28 59 167 205 184 177 172 170 178 187 192 184 184 186 189 192 199 195 201 208 214 223 236 225 233 196 206 200 204 208 214 224 224
349 347 350 353 351 357 359 13 36 49 29 42 56 75 167 166 171 171 172 166 174 181 183 178 181 183 186 191 192 194 203 208 216 226 215 204 169 189 196 197 206 208 215 216 220
344 348 351 348 355 14 17 25 26 27 25 32 55 88 149 163 158 162 168 165 169 169 177 177 183 183 189 186 191 196 207 206 211 203 194 201 190 195 196 200 198 199 195 211 224
351 351 351 357 16 21 1 345 5 16 40 41 42 127 165 154 157 163 167 166 171 169 176 176 184 186 187 191 192 191 195 206 217 204 189 190 185 196 203 214 203 205 215 219 214
346 348 359 2 26 22 14 16 31 18 14 21 51 135 168 154 151 156 156 162 163 173 180 182 181 182 186 189 191 197 198 205 213 203 198 201 200 221 213 208 217 186 176 203 194
352 354 1 18 37 13 5 12 24 18 20 46 54 111 175 188 166 158 156 159 162 173 179 168 176 177 175 184 195 198 199 200 207 202 209 228 215 228 231 221 217 195 180 172 153
354 6 1 20 36 26 8 26 36 33 30 32 51 115 150 165 168 158 163 160 164 173 172 169 174 174 181 181 188 193 200 201 208 211 217 226 226 242 226 226 223 202 186 192 188
355 0 7 33 35 17 17 29 31 22 27 43 84 124 148 157 160 159 161 159 167 163 162 171 175 175 174 178 185 187 195 201 206 209 221 221 247 239 257 232 221 210 190 204 164
352 0 7 18 18 7 16 10 17 19 28 38 110 148 153 161 159 155 160 169 169 170 174 172 174 175 176 178 181 187 194 199 201 207 220 227 235 262 248 228 214 203 193 198 194
337 345 360 14 359 359 17 34 22 21 27 77 111 142 148 150 159 160 164 166 172 180 177 171 175 179 181 182 186 191 200 200 203 213 221 216 237 266 230 195 195 198 203 169 207
Height
5796 5792 5789 5785 5782 5778 5774 5771 5767 5764 5763 5761 5760 5760 5760 5759 5762 5762 5767 5764 5763 5766 5768 5772 5776 5778 5782 5788 5792 5797 5803 5812 5823 5830 5838 5839 5844 5850 5852 5855 5853 5858 5862 5865 5871
5787 5783 5779 5775 5772 5768 5764 5759 5756 5753 5750 5749 5748 5748 5748 5748 5749 5752 5753 5750 5753 5757 5760 5763 5767 5769 5775 5780 5783 5788 5798 5807 5817 5823 5829 5831 5833 5839 5844 5846 5847 5850 5855 5859 5866
5777 5773 5768 5764 5759 5755 5750 5747 5744 5741 5739 5736 5735 5735 5735 5736 5738 5738 5739 5742 5746 5749 5752 5754 5756 5760 5766 5770 5776 5782 5790 5798 5807 5813 5818 5823 5827 5833 5836 5836 5840 5842 5847 5855 5857
5767 5762 5756 5751 5745 5740 5735 5732 5729 5726 5723 5722 5721 5721 5721 5724 5725 5726 5727 5729 5733 5738 5742 5744 5747 5751 5756 5763 5767 5772 5781 5788 5798 5803 5808 5814 5819 5826 5830 5832 5835 5837 5840 5848 5852
5756 5749 5743 5736 5730 5724 5719 5715 5711 5707 5705 5704 5703 5704 5705 5709 5715 5709 5713 5716 5720 5724 5729 5732 5737 5741 5747 5753 5758 5763 5772 5779 5787 5792 5798 5805 5812 5816 5818 5826 5829 5832 5834 5840 5847
5744 5736 5728 5721 5713 5705 5699 5695 5691 5684 5682 5681 5682 5683 5686 5693 5693 5692 5698 5701 5705 5709 5715 5721 5726 5730 5736 5743 5749 5756 5762 5768 5777 5784 5790 5797 5802 5807 5811 5817 5821 5824 5827 5830 5837
5730 5721 5711 5701 5693 5684 5676 5669 5664 5658 5656 5655 5654 5656 5664 5675 5672 5676 5680 5684 5688 5695 5700 5706 5713 5720 5726 5733 5740 5744 5751 5755 5766 5773 5781 5784 5791 5805 5804 5807 5810 5814 5819 5822 5828
5714 5703 5691 5679 5667 5656 5647 5639 5632 5625 5623 5622 5623 5626 5637 5651 5648 5655 5654 5667 5675 5680 5684 5690 5698 5708 5717 5723 5730 5735 5741 5747 5757 5762 5769 5773 5791 5794 5797 5798 5802 5804 5810 5813 5818
5695 5681 5666 5651 5636 5623 5611 5603 5594 5587 5588 5587 5591 5592 5612 5619 5624 5622 5635 5649 5655 5662 5667 5675 5686 5697 5705 5714 5721 5726 5733 5738 5747 5750 5759 5770 5781 5784 5788 5791 5793 5796 5801 5805 5808
5674 5657 5639 5621 5603 5588 5576 5568 5559 5557 5559 5559 5559 5564 5584 5585 5587 5595 5612 5623 5636 5644 5649 5662 5672 5682 5693 5702 5712 5717 5722 5728 5737 5743 5751 5764 5767 5775 5778 5784 5787 5788 5794 5798 5801
5651 5631 5612 5593 5577 5561 5553 5544 5539 5538 5540 5541 5540 5546 5552 5552 5564 5571 5587 5605 5616 5626 5639 5648 5660 5675 5685 5693 5701 5708 5716 5723 5732 5737 5744 5755 5754 5764 5768 5775 5781 5784 5786 5791 5793
5629 5609 5590 5575 5564 5552 5541 5531 5523 5519 5522 5525 5523 5528 5534 5525 5538 5554 5571 5588 5600 5618 5624 5636 5655 5668 5676 5684 5693 5702 5709 5717 5725 5732 5736 5741 5748 5753 5761 5768 5772 5777 5779 5782 5787
5611 5592 5578 5570 5559 5547 5534 5522 5513 5509 5508 5514 5509 5515 5518 5519 5531 5542 5553 5570 5587 5598 5618 5635 5648 5655 5664 5675 5684 5693 5702 5709 5717 5722 5726 5731 5738 5745 5752 5757 5761 5766 5774 5777 5778
5595 5582 5574 5566 5555 5542 5529 5518 5508 5503 5502 5503 5504 5508 5510 5511 5523 5531 5541 5558 5571 5593 5611 5620 5633 5649 5660 5671 5682 5690 5697 5702 5708 5713 5719 5723 5731 5736 5740 5747 5753 5761 5764 5769 5771
5587 5578 5570 5559 5550 5537 5527 5516 5507 5503 5502 5503 5502 5502 5503 5507 5511 5519 5534 5548 5569 5586 5600 5618 5626 5641 5653 5668 5676 5684 5689 5696 5701 5706 5712 5718 5721 5730 5732 5737 5747 5748 5750 5755 5758
5583 5577 5567 5557 5546 5537 5526 5517 5509 5508 5504 5503 5504 5503 5503 5500 5504 5512 5525 5545 5566 5580 5594 5610 5624 5636 5650 5658 5667 5676 5684 5690 5695 5701 5705 5712 5714 5724 5725 5722 5727 5732 5734 5739 5745
5581 5575 5565 5555 5546 5534 5527 5519 5515 5509 5509 5507 5506 5501 5498 5498 5503 5512 5525 5539 5553 5565 5579 5596 5616 5629 5637 5647 5657 5668 5678 5685 5690 5691 5697 5706 5710 5715 5711 5713 5715 5719 5723 5725 5730
5580 5575 5565 5555 5545 5535 5527 5523 5519 5515 5509 5507 5505 5502 5499 5497 5504 5516 5528 5541 5556 5573 5588 5595 5606 5621 5635 5645 5656 5662 5670 5675 5678 5686 5698 5701 5705 5707 5704 5706 5705 5709 5713 5715 5718
5581 5575 5564 5555 5546 5539 5533 5527 5521 5517 5512 5511 5508 5504 5500 5501 5511 5521 5534 5546 5559 5571 5584 5595 5609 5620 5630 5640 5649 5659 5665 5676 5682 5688 5694 5697 5702 5702 5702 5704 5707 5709 5709 5710 5712
5582 5575 5566 5558 5551 5544 5540 5532 5526 5522 5518 5516 5512 5510 5508 5512 5519 5529 5540 5551 5562 5575 5586 5599 5609 5618 5628 5637 5647 5657 5668 5671 5677 5683 5687 5691 5696 5698 5700 5704 5705 5708 5708 5707 5712
5582 5576 5570 5561 5554 5550 5544 5538 5533 5527 5525 5523 5520 5518 5520 5523 5528 5535 5546 5556 5566 5576 5586 5598 5609 5619 5626 5633 5641 5648 5656 5664 5673 5680 5685 5690 5695 5696 5699 5702 5704 5707 5708 5713 5715
5584 5579 5571 5565 5560 5554 5550 5544 5539 5534 5530 5527 5527 5528 5529 5530 5536 5544 5551 5561 5570 5579 5588 5596 5606 5617 5625 5636 5644 5650 5656 5662 5667 5675 5683 5688 5694 5693 5697 5698 5699 5704 5708 5710 5711
5587 5581 5574 5569 5564 5559 5556 5551 5545 5541 5536 5533 5533 5535 5539 5541 5543 5552 5558 5566 5573 5581 5589 5598 5607 5614 5627 5634 5641 5645 5652 5659 5666 5676 5682 5685 5693 5692 5695 5698 5699 5702 5706 5709 5713
5589 5585 5578 5572 5567 5565 5562 5557 5551 5548 5543 5540 5539 5540 5543 5547 5549 5556 5562 5568 5576 5582 5592 5601 5608 5616 5623 5631 5638 5645 5651 5657 5664 5672 5679 5682 5689 5689 5691 5696 5697 5700 5702 5707 5711
5590 5585 5580 5575 5572 5568 5564 5561 5555 5551 5549 5546 5545 5544 5545 5550 5556 5561 5566 5571 5579 5585 5593 5604 5611 5618 5627 5633 5639 5646 5651 5657 5663 5670 5676 5683 5685 5687 5689 5691 5693 5698 5700 5706 5709
5592 5588 5583 5578 5575 5571 5568 5564 5559 5556 5553 5550 5548 5547 5548 5553 5558 5564 5568 5574 5580 5588 5596 5605 5613 5621 5627 5634 5640 5646 5651 5657 5663 5669 5674 5680 5681 5682 5683 5686 5688 5695 5700 5705 5709
5593 5589 5585 5581 5578 5576 5572 5566 5563 5559 5556 5553 5552 5552 5555 5560 5565 5569 5574 5580 5585 5592 5597 5604 5614 5620 5626 5633 5640 5647 5651 5656 5661 5666 5673 5679 5683 5680 5673 5679 5687 5693 5699 5703 5708